STARLINK-36696, 67651

Orbit data source: Space-Track

STARLINK-36696, 67651 is a payload satellite owned by SpaceX/Seattle (US) in SSO that was launched on Mon, 02 Feb 2026 UTC via an FALCON 9 launch vehicle from the Air Force Western Test Range (AFWTR). Payload-class satellites include a variety of spacecraft equipped with specific instruments for various scientific and technological missions. These include communications satellites like Starlink; space stations such as the ISS; scientific satellites like the Hubble; Earth observation satellites from companies like Planet Labs, Umbra, and HawkEye 360; GPS; miniature CubeSats for education and research; and military/defense satellites.

Loading next visibility...
Identifier
67651, 2026-022D
Orbit
SSO
Country
Flag of USUS
Related business
Manufacturer
SpaceX/Seattle
Mission
Operational spacecraft
Bus & Motor
STARLINK V2MO, Unknown motor
Mass
575 kg wet, ~530 kg dry
Launch date (UTC)
2026-02-02 (2 months ago)
Launch vehicle
FALCON 9
Launch site
Air Force Western Test Range (AFWTR)
Object type
Payload
Rocket body
Debris
Shape & HBR
Unknown shape, 17.7 m
Radar Cross Section
RCS unknown

Expand to show TLE details & history
Last TLE update: 1 day ago

TLE from 1 day ago
0 STARLINK-36696
1 67651U 26022D   26094.61226501  .00034167  00000-0  10552-2 0  9997
2 67651  97.2837 128.5546 0001889  92.5311 267.6148 15.33465128  9541
Epoch: 2026-04-04T14:41Z
TLE epoch observation values (Epoch: 2026-04-04T14:41:39.696Z)
Latitude
-0.00005°
Longitude
75.20966°
Altitude
468.649 km
Speed
7.632 km/s
True Right ascension
08h 34m 13s
True Declination
0° 00' 00"
Sunlit
Object was in full shadow at epoch
Visualization orbit readout
Latitude
Unknown
Longitude
Unknown
Altitude
Unknown
Speed
Unknown
Apparent Right ascension
Unknown
Apparent Declination
Unknown
Sunlit
N/A
Visualization observer readout
Local Sidereal Time
20:57:30
Azimuth
Unknown
Elevation
Unknown
Doppler factor
Unknown
Orbital elements
Apogee altitude
463.718 km
Perigee altitude
461.134 km
Semi-major axis
6,840.563 km
Eccentricity
0.00019
Inclination
97.2837°
RAAN
128.5546°
Arg. of periapsis
92.5311°
True anomaly
267.59317°
Mean anomaly
267.6148°
Eccentric anomaly
267.60399°
Mean motion
3.83624 °/min
Orbital period
93.84 mins
BSTAR
0.0010552
Loading maneuver chart data...
Computing Atmospheric mass density...
Loading historical data...
Loading historical data...
Loading historical data...
Loading historical data...
Loading historical data...
Loading historical data...
Loading historical data...

Documentation

Showing up to 5 results
|